McComb, MS

3:54 AM CST on January 17, 2018 (GMT -0600)
McComb-Pike County-Lewis

Weather History for KMCB - March, 2011

Change the Weather History Date:

Thursday, March 10, 2011

  Actual Average Record
Temperature  
Mean Temperature 52 °F -  
Max Temperature 62 °F 72 °F 84 °F (1985)
Min Temperature 39 °F 45 °F 29 °F (1969)
Degree Days  
Heating Degree Days 14    
Growing Degree Days 2 (Base 50)    
Moisture  
Dew Point 36 °F    
Average Humidity 65    
Maximum Humidity 93    
Minimum Humidity 31    
Precipitation  
Precipitation 0.00 in - - ()
Sea Level Pressure  
Sea Level Pressure 30.23 in    
Wind  
Wind Speed 9 mph (NNW)    
Max Wind Speed 18 mph    
Max Gust Speed 23 mph    
Visibility 10 miles    
Events      
Averages and records for this station are not official NWS values.
T = Trace of Precipitation, MM = Missing Value Source: NWS Daily Summary

Daily Weather History Graph

Daily Weather History Graph

Search for Another Location

Airport or City:

Trip Planner

Search our weather history database for the weather conditions in past years. The results will help you decide how hot, cold, wet, or windy it might be!

Date:

Astronomy

Mar. 10, 2011 Rise Set
Actual Time 6:18 AM CST 6:06 PM CST
Civil Twilight 5:54 AM CST 6:30 PM CST
Nautical Twilight 5:26 AM CST 6:58 PM CST
Astronomical Twilight 4:58 AM CST 7:26 PM CST
Moon 9:13 AM CST (3/10) 11:34 PM CST (3/10)
Length of Visible Light 12h 36m
Length of Day
11h 48m
Waxing Crescent, 28% of the Moon is Illuminated
Mar 10
Waxing Crescent
Mar 12
First Quarter
Mar 19
Full
Mar 26
Last Quarter
Apr 3
New

Hourly Weather History & Observations

Time (CST) Temp. Windchill Dew Point Humidity Pressure Visibility Wind Dir Wind Speed Gust Speed Precip Events Conditions
12:53 AM 48.9 °F - 42.1 °F 77% 30.17 in 10.0 mi NNW 8.1 mph - N/A   Mostly Cloudy
1:00 AM 48.2 °F - 42.8 °F 82% 30.18 in 10.0 mi North 9.2 mph - N/A   Scattered Clouds
1:53 AM 46.0 °F 41.0 °F 37.0 °F 71% 30.17 in 10.0 mi NNW 10.4 mph - N/A   Partly Cloudy
2:53 AM 45.0 °F 40.1 °F 37.0 °F 74% 30.17 in 10.0 mi NW 9.2 mph - N/A   Clear
3:53 AM 43.0 °F 37.7 °F 36.0 °F 76% 30.17 in 10.0 mi NW 9.2 mph - N/A   Clear
4:53 AM 42.1 °F 35.7 °F 36.0 °F 79% 30.19 in 10.0 mi NNW 11.5 mph - N/A   Clear
5:53 AM 41.0 °F 37.1 °F 35.1 °F 79% 30.21 in 10.0 mi NW 5.8 mph - N/A   Clear
6:53 AM 41.0 °F 35.8 °F 35.1 °F 79% 30.24 in 10.0 mi NW 8.1 mph - N/A   Clear
7:53 AM 44.1 °F 38.6 °F 35.1 °F 71% 30.26 in 10.0 mi NW 10.4 mph - N/A   Clear
8:53 AM 48.0 °F - 34.0 °F 58% 30.27 in 10.0 mi NNW 13.8 mph 20.7 mph N/A   Clear
9:53 AM 50.0 °F - 35.1 °F 57% 30.27 in 10.0 mi NNW 13.8 mph 18.4 mph N/A   Clear
10:53 AM 54.0 °F - 35.1 °F 49% 30.27 in 10.0 mi NNW 13.8 mph 18.4 mph N/A   Clear
11:53 AM 55.9 °F - 35.1 °F 45% 30.26 in 10.0 mi NW 16.1 mph 23.0 mph N/A   Clear
12:53 PM 57.9 °F - 35.1 °F 42% 30.23 in 10.0 mi NW 15.0 mph 19.6 mph N/A   Clear
1:53 PM 60.1 °F - 34.0 °F 38% 30.22 in 10.0 mi NW 12.7 mph 19.6 mph N/A   Clear
2:53 PM 62.1 °F - 33.1 °F 34% 30.22 in 10.0 mi NNW 17.3 mph 20.7 mph N/A   Clear
3:53 PM 61.0 °F - 30.0 °F 31% 30.21 in 10.0 mi NNW 18.4 mph 23.0 mph N/A   Clear
4:53 PM 59.0 °F - 33.1 °F 38% 30.22 in 10.0 mi NW 15.0 mph - N/A   Clear
5:53 PM 55.9 °F - 34.0 °F 44% 30.22 in 10.0 mi NNW 8.1 mph - N/A   Clear
6:53 PM 50.0 °F - 37.9 °F 63% 30.24 in 10.0 mi Calm Calm - N/A   Clear
7:53 PM 46.0 °F - 39.0 °F 76% 30.26 in 10.0 mi Calm Calm - N/A   Clear
8:53 PM 44.1 °F - 37.9 °F 79% 30.28 in 10.0 mi Calm Calm - N/A   Clear
9:53 PM 42.1 °F - 37.9 °F 85% 30.28 in 10.0 mi Calm Calm - N/A   Clear
10:53 PM 41.0 °F - 39.0 °F 93% 30.29 in 10.0 mi Calm Calm - N/A   Clear
11:53 PM 39.0 °F - 37.0 °F 93% 30.29 in 10.0 mi Calm Calm - N/A   Clear